Вернуться в каталог

COSMOS 2251 DEB

АктивенLEO
NORAD 34878·DEBRIS·🇷🇺 Russia

Запущен Jun 16, 1993 с Plesetsk Cosmodrome

Loading…

Ближайшие Пролёты (ближайшие 24 часа)

TLE

УстаревшееSource: Space-Track

Эпоха: Sep 7, 2026, 14:33 UTC

1 34878U 93036ACR 26250.60626251  .00000597  00000-0  60162-3 0  9993
2 34878  73.9677 340.6298 0435465 272.6084 149.4472 13.44536217848860

Отслеживайте COSMOS 2251 DEB в реальном времени с AllMySat

Download on the App Store